Theta_e
309 310 311 310 310 310 309 310 309 308 309 312 314 313 315 316 320 320 323 324 324 324 325 326 326 325 321 310 310 328 330 331 328 324 320 318 315 312 307 308 309 307 308 309 310 309 307
309 309 310 311 310 310 309 308 308 309 308 311 313 314 313 315 318 320 322 323 324 324 324 326 325 324 315 300 319 323 326 324 325 322 319 319 315 315 310 307 306 309 309 308 309 309 309
311 311 311 311 310 311 311 309 308 309 309 310 311 313 312 314 316 318 320 322 323 323 323 324 325 318 309 305 319 323 322 320 324 324 317 319 319 315 312 307 311 309 304 306 306 308 307
311 311 311 311 311 312 313 311 309 309 309 310 310 311 312 313 314 317 319 321 322 321 322 323 322 315 302 315 319 319 320 318 324 326 324 324 322 317 313 312 309 303 302 296 303 306 307
311 311 311 311 311 311 311 312 311 309 311 309 310 310 312 311 312 315 318 319 319 320 322 321 313 310 300 316 309 315 320 313 319 323 324 324 320 312 310 303 299 300 292 295 298 304 305
310 310 311 311 311 311 311 311 312 312 311 310 309 310 311 311 312 312 317 318 318 318 318 317 313 302 305 302 309 312 319 319 314 316 315 314 312 304 303 299 289 292 294 296 294 299 302
309 309 310 310 310 311 311 311 311 312 311 310 309 310 310 311 312 311 314 311 304 303 308 302 302 301 303 308 312 309 317 315 313 310 302 308 300 296 299 302 301 297 295 293 296 301 300
309 309 309 310 310 311 311 311 311 311 312 311 310 310 310 311 310 310 311 304 305 308 298 306 306 304 307 309 301 306 315 306 305 297 303 299 294 300 302 301 300 298 295 293 297 300 298
308 308 308 309 309 310 310 311 311 311 311 310 310 310 309 310 310 307 304 306 313 312 298 300 305 303 303 307 300 301 309 306 300 297 297 294 297 301 298 296 294 295 294 294 294 297 299
308 307 308 308 309 310 310 311 311 311 311 310 310 310 309 309 304 303 299 307 312 312 291 293 297 302 304 306 298 307 310 304 300 296 297 295 300 299 298 296 297 291 298 297 295 292 287
308 308 308 308 309 309 310 310 310 310 310 310 309 310 309 308 302 299 303 307 311 306 276 295 297 307 305 299 300 301 310 304 296 296 297 293 295 295 294 295 299 294 299 297 295 291 290
308 308 308 308 308 309 309 309 310 310 310 309 309 309 309 305 304 304 306 310 306 285 277 290 296 296 296 298 299 302 303 306 303 297 296 296 301 298 297 298 299 300 297 296 294 291 284
310 308 308 308 309 309 309 309 309 310 310 309 309 309 307 306 297 306 306 302 284 279 290 287 290 294 294 293 294 297 295 294 290 287 287 292 294 297 299 294 297 297 293 283 278 278 278
310 310 309 308 308 309 309 309 309 310 310 309 309 308 306 304 306 306 302 288 277 284 286 292 293 292 289 293 293 295 293 290 295 293 288 285 282 292 299 295 292 292 292 281 275 277 278
310 309 308 308 308 309 309 309 310 310 310 309 308 303 302 303 306 304 291 279 281 286 291 290 292 287 288 291 292 292 291 290 293 295 287 286 287 296 297 298 296 291 288 293 284 281 279
309 309 308 309 309 309 310 310 309 309 309 308 300 298 297 304 305 298 285 281 283 289 292 293 286 289 285 288 288 289 289 294 293 296 297 291 284 293 295 298 297 295 296 286 285 278 272
309 309 308 308 308 309 309 310 310 310 309 307 298 289 298 303 301 289 279 281 284 289 290 289 288 288 288 287 289 288 289 293 296 295 297 292 289 287 294 291 290 291 289 291 290 286 279
308 308 308 308 309 308 309 309 310 310 308 300 292 284 299 301 284 285 279 281 288 287 290 288 292 291 289 291 288 289 289 292 298 297 291 294 289 283 287 294 296 295 291 291 284 281 284
308 308 308 308 308 308 309 309 309 307 303 295 286 288 299 297 278 279 281 282 286 285 287 288 289 292 293 290 287 290 291 296 297 295 292 294 287 280 282 288 292 289 292 292 291 286 283
305 306 307 307 306 305 304 305 303 302 302 297 288 282 286 289 288 283 280 283 280 289 287 287 285 286 291 289 292 289 290 294 296 296 298 297 288 284 280 282 288 286 289 291 290 284 284
306 305 305 306 306 305 305 304 304 303 302 297 288 283 285 280 282 283 284 282 280 282 287 289 287 286 289 286 288 286 291 291 295 296 295 293 285 287 287 288 288 288 287 288 287 288 284
306 306 306 305 305 304 303 303 303 301 300 291 284 284 283 284 284 282 283 280 281 283 286 286 284 287 291 286 289 286 290 290 289 292 292 293 283 286 282 287 287 285 287 288 288 289 288
306 306 306 305 304 304 304 303 302 300 298 289 291 291 287 286 284 282 281 282 282 286 288 289 290 289 290 291 293 293 294 295 293 290 289 289 286 284 279 284 284 281 285 287 287 289 289
306 306 305 305 304 303 303 303 302 301 299 296 294 290 285 282 283 282 285 287 286 287 285 289 293 291 292 297 295 294 292 290 291 291 292 287 286 285 280 277 274 284 289 290 288 290 291
307 306 306 306 305 304 304 304 303 303 303 299 297 292 287 282 285 285 286 287 287 288 286 288 289 293 296 293 285 281 281 278 282 288 288 289 286 283 279 278 280 283 286 286 285 286 291
307 307 306 306 306 305 305 304 304 303 303 300 297 298 293 284 282 285 285 287 284 284 284 285 291 294 294 288 283 277 270 270 270 274 288 289 290 284 281 276 272 283 288 291 289 281 291
305 305 306 306 306 306 305 305 304 304 303 301 297 298 294 285 286 285 285 284 288 285 282 284 285 286 291 283 278 277 276 279 272 271 273 281 282 279 279 278 280 285 288 290 279 281 288
301 303 304 304 305 306 305 304 304 304 304 301 295 297 294 285 286 283 284 284 286 287 281 283 283 284 281 277 276 275 273 276 274 277 276 278 276 274 277 275 273 287 286 283 286 285 284
299 300 301 303 303 303 303 303 303 302 303 303 293 294 295 286 286 287 286 287 287 287 287 286 284 282 285 278 276 276 272 275 276 273 282 275 281 277 279 278 286 284 285 286 286 286 285
Wind_Speed
11 17 16 11 13 14 15 14 13 13 13 11 7 5 7 9 10 10 9 9 10 10 9 8 7 6 2 7 8 5 3 2 4 6 10 9 7 7 8 5 7 5 10 3 6 2 2
17 16 15 15 14 14 15 14 15 15 13 12 10 6 5 8 9 11 9 8 10 10 11 9 8 5 5 14 3 5 3 5 4 7 10 11 7 7 8 7 8 3 6 8 5 5 4
21 20 19 18 17 16 17 17 16 16 15 14 11 8 4 4 7 10 9 8 9 10 11 9 9 6 11 13 3 2 1 1 4 4 7 10 8 6 4 7 7 3 5 7 5 4 6
22 21 22 19 21 19 17 19 18 17 15 12 12 10 9 4 7 8 9 7 8 9 10 9 9 6 8 14 6 2 3 5 3 2 4 8 5 5 6 2 4 4 6 7 8 10 5
24 24 22 23 21 23 23 20 21 19 17 15 13 11 10 10 6 7 8 6 8 7 8 9 3 5 7 1 9 7 4 6 4 1 1 1 1 3 3 4 5 7 5 11 9 10 10
26 24 24 24 23 23 24 24 22 20 18 16 15 14 12 12 9 7 7 5 6 4 5 4 2 4 5 7 5 10 4 5 4 4 4 4 4 5 4 7 9 7 11 12 10 5 3
26 25 25 26 24 21 23 21 24 23 19 18 15 14 13 15 12 6 5 6 5 4 9 5 6 4 2 9 6 10 10 5 7 6 7 8 5 12 11 12 10 10 9 8 7 9 6
27 25 26 25 25 23 22 21 24 26 22 19 17 15 15 16 14 7 5 7 9 2 8 15 0 9 3 5 5 8 11 8 8 13 11 6 14 10 10 8 12 12 12 10 7 5 2
28 27 26 25 24 24 21 21 20 24 23 20 19 17 15 15 16 6 9 12 3 10 5 11 9 13 4 5 5 13 16 8 10 14 17 15 1 17 13 12 14 13 14 8 7 6 5
30 28 26 24 24 21 19 20 20 22 23 22 19 17 15 15 12 10 9 11 3 2 4 11 16 7 7 4 6 7 16 9 7 16 12 13 18 11 15 14 14 15 10 13 11 6 6
33 29 25 23 22 19 17 18 14 17 24 23 20 19 17 19 7 8 4 8 6 1 6 18 13 12 12 10 11 8 16 10 9 8 11 8 12 19 14 15 8 6 5 9 8 6 6
35 32 27 24 22 19 19 18 19 18 23 23 21 20 19 13 3 8 12 7 5 7 9 7 9 17 13 17 8 10 10 8 1 6 8 13 3 7 16 6 9 6 3 3 1 2 9
31 33 27 23 20 19 18 18 16 19 25 25 22 20 15 8 9 3 9 5 10 12 4 5 10 16 25 11 12 11 16 15 10 9 14 10 13 3 2 11 6 5 9 2 2 3 7
29 31 25 23 21 19 18 17 16 18 24 25 23 20 12 7 7 7 7 4 14 11 2 1 10 20 24 20 13 13 19 17 18 10 11 10 6 16 10 10 11 14 13 6 8 6 4
19 25 24 21 20 19 19 18 17 18 24 25 23 9 8 6 8 7 2 8 8 1 5 7 11 17 14 14 9 15 17 23 19 18 7 10 7 6 14 8 16 11 19 13 6 2 2
9 19 21 18 17 17 18 19 19 21 25 25 8 9 8 9 9 4 0 4 2 6 5 10 15 10 14 19 13 17 20 19 15 18 7 2 2 9 7 6 7 6 6 9 3 4 5
14 18 15 13 12 14 18 20 20 23 27 26 6 6 9 12 6 3 6 5 4 7 1 4 10 8 10 14 19 13 10 8 24 19 13 5 3 2 8 11 15 10 6 6 5 7 5
17 11 7 8 9 9 12 19 23 25 29 14 4 5 10 11 5 2 7 6 3 5 4 5 12 9 15 19 13 19 17 18 22 19 22 9 4 6 11 5 12 16 16 15 7 9 5
28 26 26 25 23 19 16 19 19 33 22 7 4 3 8 8 7 6 2 8 4 3 3 3 7 7 8 13 15 20 17 12 14 17 16 14 5 3 2 4 7 10 16 18 17 1 14
30 30 28 28 28 29 31 31 29 22 14 6 4 4 2 2 2 11 6 6 12 4 9 6 10 16 16 14 10 16 14 9 11 21 10 15 5 14 17 13 9 11 14 19 18 12 18
24 24 22 24 27 27 26 26 22 15 9 5 2 3 2 6 10 9 11 7 8 6 5 8 5 20 15 12 15 6 14 7 13 10 13 10 9 13 17 13 10 10 16 20 19 25 19
21 21 22 22 22 24 21 17 14 15 14 5 4 3 1 2 4 15 14 11 14 4 4 6 13 20 14 7 14 15 17 12 7 7 9 8 5 5 8 15 16 18 16 13 23 23 19
18 16 17 20 18 19 18 14 13 13 11 1 2 1 0 5 9 13 16 14 13 13 8 9 11 15 20 1 8 9 8 5 8 9 10 9 7 6 14 12 11 13 21 23 19 18 21
17 16 14 16 16 15 14 12 12 15 7 2 2 2 3 5 11 15 13 8 8 10 7 2 4 8 4 1 10 10 13 11 7 3 1 8 11 8 11 2 16 12 9 16 25 24 23
17 15 13 10 13 13 10 10 5 9 14 2 2 4 2 2 4 8 12 7 8 7 4 5 1 2 9 4 5 4 3 5 4 5 5 1 4 7 10 13 13 9 12 17 14 23 19
23 17 10 8 8 12 5 4 5 4 4 3 2 3 2 1 2 2 2 10 6 5 4 3 4 7 3 3 4 3 5 5 4 4 11 10 4 8 5 10 13 18 18 14 3 11 23
19 18 18 14 6 3 1 2 3 5 8 2 2 4 1 3 3 4 3 3 3 5 3 3 2 1 2 2 3 4 5 8 4 8 7 9 9 17 13 10 5 10 7 4 8 13 2
17 17 16 15 15 9 9 9 12 7 8 4 1 6 3 2 3 1 3 2 3 3 5 5 5 3 2 2 4 5 4 5 2 4 7 13 9 7 8 9 15 9 2 9 5 3 0
17 16 15 14 11 9 8 10 10 8 6 4 1 2 2 2 2 1 2 3 3 1 3 3 1 3 5 3 2 2 1 1 8 9 10 7 9 5 9 7 4 3 5 3 4 6 5
Wind_Direction
287 280 293 284 261 255 258 258 257 250 259 257 252 273 299 312 268 255 249 238 212 208 201 197 201 210 202 216 243 142 76 107 206 199 226 226 242 248 250 256 250 201 280 177 84 107 260
290 284 278 280 265 256 255 256 260 255 249 254 246 238 280 305 276 256 246 232 224 207 205 190 192 190 247 232 348 166 65 345 348 201 215 236 241 252 288 276 260 242 292 260 195 202 201
281 277 274 275 265 254 239 247 248 253 251 250 245 230 231 294 277 249 243 236 226 216 204 191 187 194 232 228 68 34 200 310 345 297 231 233 270 284 201 273 276 350 281 282 259 204 257
281 279 276 267 269 261 247 235 241 244 243 245 238 246 212 251 312 276 230 220 230 225 199 181 191 206 241 222 230 134 203 217 272 309 325 335 21 305 274 347 338 209 237 252 207 208 193
280 278 272 272 256 256 258 248 235 236 232 227 234 236 215 212 265 303 235 207 223 220 205 145 162 215 233 37 210 218 247 228 185 191 28 3 308 247 202 251 234 207 243 220 245 227 196
285 282 278 271 266 257 248 247 240 230 229 218 223 225 230 201 218 286 246 173 214 176 165 128 326 152 286 208 175 199 185 273 170 171 143 184 216 204 216 196 206 216 216 243 257 212 196
283 279 275 273 270 262 256 242 237 232 224 216 209 221 221 197 185 240 223 101 139 195 204 194 165 171 209 198 157 188 170 179 201 198 195 201 198 206 197 215 232 269 277 285 245 245 178
277 274 271 266 268 263 253 249 244 223 220 214 203 211 210 203 187 204 268 210 197 37 204 224 191 187 14 143 152 195 168 172 187 204 207 194 227 217 223 219 222 242 259 265 290 314 97
273 271 264 263 260 260 253 244 231 218 215 208 199 198 205 207 194 201 243 230 19 1 209 190 202 204 174 189 187 191 176 187 185 195 206 216 236 208 233 220 231 231 240 248 259 292 209
270 266 260 254 257 258 250 239 231 222 216 205 195 190 195 200 197 180 234 252 25 25 232 183 185 210 162 221 224 186 190 170 208 208 198 228 233 196 219 227 209 232 213 236 248 241 245
268 259 251 250 249 250 244 232 226 222 202 197 189 184 187 184 129 181 143 225 113 142 249 163 158 135 155 196 126 208 181 212 211 195 193 206 195 221 218 226 221 237 294 254 224 250 272
244 253 245 237 240 238 238 228 221 213 202 195 183 178 179 191 215 182 205 144 121 222 229 167 138 164 155 196 177 118 169 237 209 226 254 238 28 217 227 225 216 164 86 45 357 258 246
244 232 233 227 227 228 224 219 222 215 197 192 179 172 171 172 194 159 159 174 200 224 163 177 164 171 178 166 161 170 180 193 174 171 207 217 222 183 224 201 171 221 160 180 224 217 234
231 215 220 219 220 217 217 216 220 195 184 183 172 165 177 179 184 146 164 228 221 190 213 138 171 189 190 162 186 179 175 193 216 212 155 184 211 210 168 218 189 203 202 175 198 198 231
202 200 207 207 214 215 212 213 203 192 183 177 162 167 164 182 167 150 172 196 213 351 137 173 160 184 180 175 160 169 195 200 197 200 167 183 231 155 175 186 175 188 215 214 328 150 124
176 180 192 195 206 210 209 200 193 183 174 163 149 159 164 165 136 105 220 234 272 236 353 230 187 177 198 181 177 180 187 200 204 209 224 167 120 181 178 184 239 186 152 201 205 239 232
128 147 174 187 199 213 209 191 183 176 164 147 141 127 150 141 113 107 220 212 251 270 258 286 226 160 192 180 191 191 194 188 200 189 204 154 128 209 145 199 188 198 208 216 183 212 211
63 80 139 155 144 149 179 182 171 166 148 114 97 123 147 134 138 165 216 185 212 255 215 303 303 189 191 182 186 188 203 209 192 175 194 188 154 173 207 198 223 217 214 205 204 219 247
65 75 82 83 85 86 130 127 148 131 120 108 87 77 150 153 183 198 232 222 183 220 186 193 288 256 249 176 192 206 198 194 187 185 182 178 220 153 214 226 229 218 225 227 233 162 220
60 68 79 84 86 91 90 100 100 92 97 75 84 112 65 172 265 195 174 228 231 215 239 208 276 309 237 181 216 190 201 173 183 200 153 159 189 212 224 222 139 207 218 222 226 238 244
68 85 91 90 96 97 106 115 116 113 105 116 110 178 176 182 213 216 215 178 182 235 191 164 284 242 220 178 192 181 196 172 186 188 191 152 214 229 243 260 269 227 212 218 229 232 229
59 73 90 98 102 105 104 105 96 73 61 68 132 154 157 288 184 199 206 219 219 214 209 199 214 259 211 175 186 188 182 175 168 175 191 170 233 185 257 250 244 256 262 250 232 245 255
62 70 94 99 100 110 113 115 108 96 82 101 148 108 202 201 182 183 207 214 224 220 217 235 227 239 200 316 95 60 59 174 148 165 203 179 201 183 244 235 236 252 239 244 254 244 236
55 63 101 121 119 121 133 148 152 162 174 136 155 112 206 229 190 194 185 179 174 194 180 237 318 190 75 45 72 41 42 32 23 45 87 192 197 210 246 265 245 242 241 225 233 241 244
40 51 61 102 152 149 144 164 176 204 212 231 136 221 234 40 106 125 160 153 177 123 113 86 65 112 186 48 69 80 45 15 305 230 216 174 150 231 234 237 261 299 243 219 221 244 239
36 34 48 71 98 158 169 84 63 62 178 189 142 268 245 122 306 104 153 172 158 156 111 6 287 335 331 95 130 160 183 213 217 301 196 188 174 213 200 237 240 243 241 237 246 247 240
27 35 36 33 41 86 97 10 22 20 9 341 140 338 199 138 177 155 199 202 132 140 114 115 181 85 33 146 153 180 227 177 178 183 174 196 213 223 232 244 266 266 213 101 182 239 198
19 16 17 24 33 41 63 46 37 20 9 33 351 13 30 35 293 184 334 58 49 152 155 177 62 355 29 188 157 206 193 222 23 229 168 182 177 202 220 231 247 237 31 201 228 301 296
15 13 10 6 8 17 23 13 6 352 329 343 26 37 352 95 293 291 208 175 46 12 5 193 108 142 180 166 190 174 231 199 185 237 232 242 202 199 181 211 220 229 230 244 167 233 234